Weather History for KSGJ - March, 2013

Change the Weather History Date:

Monday, March 11, 2013

  Actual Average Record
Temperature  
Mean Temperature 64 °F -  
Max Temperature 75 °F 68 °F 85 °F (1986)
Min Temperature 54 °F 51 °F 35 °F (1998)
Degree Days  
Heating Degree Days 2    
Growing Degree Days 14 (Base 50)    
Moisture  
Dew Point 57 °F    
Average Humidity 74    
Maximum Humidity 93    
Minimum Humidity 53    
Precipitation  
Precipitation 0.00 in - - ()
Sea Level Pressure  
Sea Level Pressure 30.04 in    
Wind  
Wind Speed 8 mph (SSE)    
Max Wind Speed 18 mph    
Max Gust Speed 25 mph    
Visibility 10 miles    
Events Rain    
Averages and records for this station are not official NWS values.
T = Trace of Precipitation, MM = Missing Value Source: NWS Daily Summary

Daily Weather History Graph

Daily Weather History Graph

Search for Another Location

Airport or City:

Trip Planner

Search our weather history database for the weather conditions in past years. The results will help you decide how hot, cold, wet, or windy it might be!

Date:

Astronomy

Mar. 11, 2013 Rise Set
Actual Time 7:39 AM EDT 7:31 PM EDT
Civil Twilight 7:15 AM EDT 7:55 PM EDT
Nautical Twilight 6:48 AM EDT 8:22 PM EDT
Astronomical Twilight 6:20 AM EDT 8:50 PM EDT
Moon 7:14 AM EDT (3/11) 7:37 PM EDT (3/11)
Length of Visible Light 12h 39m
Length of Day
11h 51m
Waning Crescent, 0% of the Moon is Illuminated
Mar 11
Waning Crescent
Mar 11
New
Mar 19
First Quarter
Mar 27
Full
Apr 3
Last Quarter

Hourly Weather History & Observations

Time (EDT) Temp. Dew Point Humidity Pressure Visibility Wind Dir Wind Speed Gust Speed Precip Events Conditions
12:58 AM 62.1 °F 57.0 °F 84% 30.15 in 10.0 mi SE 4.6 mph - N/A   Clear
1:58 AM 60.1 °F 57.0 °F 90% 30.13 in 10.0 mi SE 5.8 mph - N/A   Clear
2:58 AM 57.9 °F 55.0 °F 90% 30.13 in 10.0 mi Calm Calm - N/A   Clear
3:58 AM 55.9 °F 54.0 °F 93% 30.11 in 10.0 mi Calm Calm - N/A   Scattered Clouds
4:58 AM 55.0 °F 52.0 °F 89% 30.08 in 10.0 mi Calm Calm - N/A   Clear
5:58 AM 57.0 °F 55.0 °F 93% 30.06 in 10.0 mi SSE 4.6 mph - N/A   Clear
6:58 AM 55.0 °F 53.1 °F 93% 30.08 in 10.0 mi Calm Calm - N/A   Clear
7:58 AM 54.0 °F 52.0 °F 93% 30.08 in 10.0 mi Calm Calm - N/A   Clear
8:58 AM 64.0 °F 57.9 °F 80% 30.09 in 10.0 mi South 4.6 mph - N/A   Clear
9:58 AM 71.1 °F 55.9 °F 59% 30.08 in 10.0 mi SSE 10.4 mph - N/A   Clear
10:58 AM 72.0 °F 55.0 °F 55% 30.09 in 10.0 mi SE 15.0 mph 23.0 mph N/A   Clear
11:58 AM 73.9 °F 55.9 °F 53% 30.09 in 10.0 mi South 17.3 mph - N/A   Clear
12:58 PM 73.9 °F 55.9 °F 53% 30.07 in 10.0 mi SE 18.4 mph 23.0 mph N/A   Mostly Cloudy
1:58 PM 73.9 °F 57.0 °F 55% 30.05 in 10.0 mi SE 18.4 mph - N/A   Overcast
2:58 PM 73.0 °F 57.9 °F 59% 30.00 in 10.0 mi SSE 18.4 mph 25.3 mph N/A   Mostly Cloudy
3:58 PM 72.0 °F 59.0 °F 64% 29.98 in 10.0 mi SE 16.1 mph 24.2 mph N/A   Mostly Cloudy
4:58 PM 71.1 °F 57.9 °F 63% 29.95 in 10.0 mi SE 15.0 mph - N/A   Mostly Cloudy
5:58 PM 70.0 °F 57.9 °F 65% 29.96 in 10.0 mi SSE 16.1 mph 20.7 mph N/A   Mostly Cloudy
6:58 PM 69.1 °F 57.0 °F 65% 29.96 in 10.0 mi SSE 15.0 mph 23.0 mph N/A   Mostly Cloudy
7:58 PM 68.0 °F 57.0 °F 68% 29.94 in 10.0 mi SSE 17.3 mph 21.9 mph N/A   Clear
8:58 PM 68.0 °F 59.0 °F 73% 29.94 in 10.0 mi SSE 16.1 mph 24.2 mph N/A   Clear
9:58 PM 68.0 °F 60.1 °F 76% 29.96 in 10.0 mi SSE 13.8 mph 23.0 mph N/A   Clear
10:58 PM 68.0 °F 61.0 °F 78% 29.98 in 10.0 mi South 10.4 mph - N/A   Partly Cloudy
11:58 PM 68.0 °F 61.0 °F 78% 29.96 in 10.0 mi SSE 8.1 mph - 0.00 in Rain Light Rain